Orbital Elements at Epoch 2459000.5 (2020-May-31.0) TDB
Reference: JPL 9 (heliocentric ecliptic J2000)
Element | Value | Uncertainty (1-sigma) | Units |
e | .1766934969164111 | 5.004e-08 | |
a | 2.335978521881239 | 1.2744e-08 | au |
q | 1.923226308128414 | 1.1977e-07 | au |
i | 2.383209376230661 | 7.6732e-06 | deg |
node | 315.9840228176984 | 0.00015162 | deg |
peri | 124.5020932930925 | 0.00015555 | deg |
M | 258.4087250147818 | 2.9903e-05 | deg |
tp | 2459368.506597759637 (2021-Jun-03.00659776) | 0.00010952 | TDB |
period | 1304.072374450916 3.57 | 1.0672e-05 2.922e-08 | d yr |
n | .2760582978775079 | 2.2591e-09 | deg/d |
Q | 2.748730735634065 | 1.4996e-08 | au |
|
| | Orbit Determination Parameters
Additional Information
|